| time (UTC) | temp C | wind direction | speed KPH | gust KPH | rain 1hr cm | rain 24hr cm | rain mn cm | humidity % | barometer mb |
| 20260904071606 | 12 | 98 | 0.0 | 0.0 | 0.00 | 1.52 | 0.00 | 92 | 1018.3 |
| 20260904071107 | 12 | 98 | 0.0 | 0.0 | 0.00 | 1.52 | 0.00 | 92 | 1018.2 |
| 20260904070607 | 12 | 99 | 0.0 | 0.0 | 0.00 | 1.52 | 0.00 | 92 | 1018.2 |
| 20260904070104 | 12 | 100 | 0.0 | 0.0 | 0.00 | 1.52 | 0.00 | 92 | 1018.1 |
| 20260904065603 | 12 | 99 | 0.0 | 0.0 | 0.00 | 1.52 | 1.52 | 92 | 1018.1 |
| 20260904065104 | 12 | 100 | 0.0 | 0.0 | 0.00 | 1.52 | 1.52 | 92 | 1018.2 |
| 20260904064600 | 12 | 98 | 0.0 | 0.0 | 0.00 | 1.52 | 1.52 | 92 | 1018.1 |
| 20260904064101 | 12 | 99 | 0.0 | 0.0 | 0.00 | 1.52 | 1.52 | 92 | 1018.2 |
| 20260904063600 | 12 | 99 | 0.0 | 0.0 | 0.00 | 1.52 | 1.52 | 91 | 1018.0 |
| 20260904063058 | 12 | 98 | 0.0 | 0.0 | 0.00 | 1.52 | 1.52 | 91 | 1018.1 |
| 20260904062559 | 12 | 99 | 0.0 | 0.0 | 0.00 | 1.52 | 1.52 | 91 | 1018.0 |
| 20260904062056 | 12 | 99 | 0.0 | 0.0 | 0.00 | 1.52 | 1.52 | 91 | 1018.1 |
| 20260904061554 | 12 | 98 | 0.0 | 0.0 | 0.00 | 1.52 | 1.52 | 91 | 1018.1 |
| 20260904061055 | 12 | 98 | 0.0 | 1.6 | 0.00 | 1.52 | 1.52 | 91 | 1018.1 |
| 20260904060559 | 12 | 99 | 0.0 | 3.2 | 0.00 | 1.52 | 1.52 | 91 | 1018.1 |
| 20260904060052 | 12 | 98 | 0.0 | 3.2 | 0.00 | 1.52 | 1.52 | 91 | 1018.0 |
| 20260904055553 | 12 | 98 | 0.0 | 0.0 | 0.00 | 1.52 | 1.52 | 91 | 1018.0 |
| 20260904055045 | 12 | 98 | 0.0 | 0.0 | 0.00 | 1.52 | 1.52 | 91 | 1018.0 |
| 20260904054547 | 12 | 98 | 0.0 | 0.0 | 0.00 | 1.52 | 1.52 | 91 | 1018.0 |
| 20260904054045 | 12 | 99 | 0.0 | 0.0 | 0.00 | 1.52 | 1.52 | 91 | 1017.9 |
| 20260904053547 | 12 | 98 | 0.0 | 0.0 | 0.00 | 1.52 | 1.52 | 91 | 1018.0 |
| 20260904053046 | 12 | 98 | 0.0 | 0.0 | 0.00 | 1.52 | 1.52 | 91 | 1018.0 |
| 20260904052545 | 12 | 98 | 0.0 | 3.2 | 0.00 | 1.52 | 1.52 | 91 | 1018.0 |
| 20260904052043 | 12 | 99 | 0.0 | 3.2 | 0.00 | 1.52 | 1.52 | 91 | 1018.0 |
| 20260904051542 | 12 | 98 | 0.0 | 0.0 | 0.00 | 1.52 | 1.52 | 91 | 1018.1 |
| 20260904051040 | 12 | 97 | 0.0 | 0.0 | 0.00 | 1.52 | 1.52 | 91 | 1018.1 |
| 20260904050539 | 12 | 98 | 0.0 | 0.0 | 0.00 | 1.52 | 1.52 | 91 | 1018.2 |
| 20260904050040 | 12 | 98 | 0.0 | 1.6 | 0.00 | 1.52 | 1.52 | 91 | 1018.1 |
| 20260904045540 | 12 | 97 | 0.0 | 1.6 | 0.00 | 1.52 | 1.52 | 91 | 1018.2 |
| 20260904045034 | 12 | 98 | 0.0 | 1.6 | 0.00 | 1.52 | 1.52 | 91 | 1018.2 |
| 20260904044533 | 12 | 98 | 0.0 | 1.6 | 0.00 | 1.52 | 1.52 | 91 | 1018.2 |
| 20260904044030 | 12 | 98 | 0.0 | 0.0 | 0.00 | 1.52 | 1.52 | 91 | 1018.1 |
| 20260904043528 | 12 | 98 | 0.0 | 3.2 | 0.03 | 1.52 | 1.52 | 91 | 1018.2 |
| 20260904043028 | 12 | 98 | 0.0 | 4.8 | 0.03 | 1.52 | 1.52 | 91 | 1018.2 |
| 20260904042522 | 12 | 98 | 0.0 | 4.8 | 0.03 | 1.52 | 1.52 | 91 | 1018.2 |
| 20260904042022 | 12 | 98 | 0.0 | 3.2 | 0.03 | 1.52 | 1.52 | 91 | 1018.1 |
| 20260904041523 | 12 | 98 | 0.0 | 3.2 | 0.03 | 1.52 | 1.52 | 91 | 1018.1 |
| 20260904041021 | 12 | 98 | 0.0 | 3.2 | 0.03 | 1.52 | 1.52 | 91 | 1018.1 |
| 20260904040521 | 12 | 99 | 0.0 | 4.8 | 0.05 | 1.52 | 1.52 | 91 | 1018.2 |
| 20260904040021 | 12 | 98 | 1.6 | 6.4 | 0.05 | 1.52 | 1.52 | 91 | 1018.2 |
| 20260904035522 | 12 | 81 | 1.6 | 6.4 | 0.05 | 1.52 | 1.52 | 91 | 1018.3 |
| 20260904035016 | 12 | 101 | 1.6 | 4.8 | 0.05 | 1.52 | 1.52 | 91 | 1018.2 |
| 20260904034517 | 12 | 129 | 1.6 | 6.4 | 0.05 | 1.52 | 1.52 | 90 | 1018.1 |
| 20260904034016 | 12 | 134 | 1.6 | 6.4 | 0.08 | 1.52 | 1.52 | 91 | 1018.2 |
| 20260904033515 | 13 | 110 | 1.6 | 4.8 | 0.10 | 1.50 | 1.50 | 91 | 1018.1 |
| 20260904033015 | 13 | 117 | 1.6 | 4.8 | 0.15 | 1.50 | 1.50 | 91 | 1018.1 |
| 20260904032517 | 13 | 142 | 1.6 | 4.8 | 0.18 | 1.50 | 1.50 | 91 | 1018.0 |
| 20260904032010 | 13 | 136 | 1.6 | 11.3 | 0.18 | 1.50 | 1.50 | 91 | 1018.1 |
| 20260904031512 | 13 | 154 | 1.6 | 11.3 | 0.20 | 1.50 | 1.50 | 91 | 1018.1 |
| 20260904031009 | 13 | 181 | 3.2 | 11.3 | 0.20 | 1.50 | 1.50 | 91 | 1018.1 |
| 20260904030509 | 13 | 136 | 3.2 | 11.3 | 0.18 | 1.47 | 1.47 | 91 | 1018.1 |
| 20260904030008 | 13 | 149 | 3.2 | 8.0 | 0.18 | 1.47 | 1.47 | 91 | 1018.1 |
| 20260904025507 | 13 | 149 | 3.2 | 11.3 | 0.18 | 1.47 | 1.47 | 91 | 1018.1 |
| 20260904025008 | 13 | 159 | 4.8 | 11.3 | 0.18 | 1.47 | 1.47 | 91 | 1018.1 |
| 20260904024505 | 13 | 167 | 3.2 | 11.3 | 0.18 | 1.47 | 1.47 | 91 | 1018.2 |
| 20260904024006 | 13 | 182 | 1.6 | 11.3 | 0.15 | 1.45 | 1.45 | 91 | 1018.2 |
| 20260904023506 | 13 | 170 | 1.6 | 9.7 | 0.10 | 1.40 | 1.40 | 90 | 1018.0 |
| 20260904023002 | 13 | 159 | 1.6 | 8.0 | 0.05 | 1.35 | 1.37 | 90 | 1018.0 |
| 20260904022501 | 13 | 158 | 1.6 | 8.0 | 0.03 | 1.32 | 1.32 | 90 | 1018.0 |
| 20260904022003 | 13 | 165 | 1.6 | 8.0 | 0.03 | 1.32 | 1.32 | 90 | 1018.0 |
| 20260904021501 | 13 | 165 | 1.6 | 9.7 | 0.00 | 1.30 | 1.30 | 90 | 1018.0 |
| 20260904021001 | 13 | 161 | 1.6 | 9.7 | 0.00 | 1.30 | 1.30 | 89 | 1018.1 |
| 20260904020503 | 13 | 188 | 1.6 | 6.4 | 0.00 | 1.30 | 1.30 | 90 | 1018.1 |
| 20260904015957 | 13 | 159 | 1.6 | 4.8 | 0.03 | 1.30 | 1.30 | 89 | 1018.1 |
| 20260904015459 | 13 | 140 | 1.6 | 6.4 | 0.03 | 1.30 | 1.30 | 89 | 1018.1 |
| 20260904014957 | 13 | 122 | 0.0 | 6.4 | 0.03 | 1.30 | 1.30 | 89 | 1018.0 |
| 20260904014458 | 13 | 152 | 1.6 | 6.4 | 0.03 | 1.30 | 1.30 | 89 | 1018.0 |
| 20260904013957 | 13 | 153 | 1.6 | 6.4 | 0.03 | 1.30 | 1.30 | 89 | 1017.9 |
| 20260904013459 | 13 | 158 | 1.6 | 8.0 | 0.03 | 1.32 | 1.30 | 88 | 1018.0 |
| 20260904012955 | 13 | 163 | 3.2 | 8.0 | 0.03 | 1.32 | 1.30 | 88 | 1017.9 |
| 20260904012454 | 13 | 151 | 3.2 | 11.3 | 0.03 | 1.32 | 1.30 | 88 | 1017.9 |
| 20260904011953 | 14 | 143 | 3.2 | 11.3 | 0.03 | 1.32 | 1.30 | 88 | 1017.8 |
| 20260904011454 | 14 | 196 | 1.6 | 6.4 | 0.03 | 1.32 | 1.30 | 89 | 1017.9 |
| 20260904010954 | 14 | 158 | 3.2 | 12.9 | 0.05 | 1.32 | 1.30 | 88 | 1018.0 |
| 20260904010454 | 14 | 172 | 3.2 | 12.9 | 0.10 | 1.32 | 1.30 | 89 | 1017.9 |
| 20260904005951 | 14 | 128 | 3.2 | 11.3 | 0.10 | 1.30 | 1.27 | 89 | 1017.8 |
| 20260904005451 | 14 | 121 | 3.2 | 12.9 | 0.13 | 1.30 | 1.27 | 89 | 1017.7 |
| 20260904004952 | 15 | 146 | 3.2 | 12.9 | 0.15 | 1.30 | 1.27 | 89 | 1017.7 |
| 20260904004452 | 15 | 130 | 3.2 | 9.7 | 0.15 | 1.35 | 1.27 | 90 | 1017.8 |
| 20260904003951 | 15 | 135 | 3.2 | 11.3 | 0.15 | 1.35 | 1.27 | 90 | 1017.8 |
| 20260904003452 | 15 | 146 | 3.2 | 11.3 | 0.15 | 1.37 | 1.27 | 90 | 1017.8 |
| 20260904002948 | 15 | 126 | 1.6 | 8.0 | 0.15 | 1.37 | 1.27 | 90 | 1017.9 |
| 20260904002447 | 15 | 117 | 0.0 | 3.2 | 0.15 | 1.37 | 1.27 | 90 | 1017.9 |
| 20260904001947 | 15 | 117 | 0.0 | 3.2 | 0.15 | 1.37 | 1.27 | 89 | 1018.0 |
| 20260904001447 | 15 | 117 | 1.6 | 4.8 | 0.15 | 1.37 | 1.27 | 89 | 1017.9 |
| 20260904000948 | 15 | 117 | 1.6 | 4.8 | 0.13 | 1.35 | 1.24 | 89 | 1018.1 |
| 20260904000448 | 15 | 116 | 1.6 | 4.8 | 0.08 | 1.30 | 1.22 | 89 | 1018.2 |
| 20260903235948 | 15 | 117 | 1.6 | 6.4 | 0.08 | 1.27 | 1.17 | 88 | 1018.2 |
| 20260903235445 | 15 | 117 | 3.2 | 6.4 | 0.05 | 1.24 | 1.14 | 88 | 1018.1 |
| 20260903234943 | 15 | 103 | 1.6 | 6.4 | 0.05 | 1.22 | 1.12 | 88 | 1018.0 |
| 20260903234441 | 15 | 143 | 1.6 | 8.0 | 0.08 | 1.22 | 1.12 | 89 | 1017.9 |
| 20260903233941 | 15 | 144 | 1.6 | 8.0 | 0.08 | 1.22 | 1.12 | 89 | 1017.9 |
| 20260903233441 | 15 | 148 | 1.6 | 6.4 | 0.10 | 1.22 | 1.12 | 88 | 1018.0 |
| 20260903232942 | 15 | 159 | 1.6 | 4.8 | 0.10 | 1.22 | 1.12 | 89 | 1018.1 |
| 20260903232439 | 15 | 154 | 1.6 | 4.8 | 0.10 | 1.22 | 1.12 | 90 | 1018.1 |
| 20260903231937 | 14 | 149 | 1.6 | 4.8 | 0.10 | 1.22 | 1.12 | 90 | 1018.1 |
| 20260903231437 | 14 | 151 | 1.6 | 4.8 | 0.10 | 1.27 | 1.12 | 90 | 1018.1 |
| 20260903230937 | 13 | 157 | 0.0 | 4.8 | 0.10 | 1.42 | 1.12 | 90 | 1018.1 |
| 20260903230435 | 13 | 155 | 0.0 | 3.2 | 0.10 | 1.45 | 1.12 | 90 | 1018.1 |
| 20260903225935 | 13 | 155 | 0.0 | 4.8 | 0.10 | 1.45 | 1.09 | 90 | 1018.2 |
| 20260903225431 | 13 | 155 | 0.0 | 4.8 | 0.10 | 1.45 | 1.09 | 90 | 1018.3 |
| 20260903224929 | 13 | 139 | 1.6 | 6.4 | 0.13 | 1.45 | 1.07 | 90 | 1018.4 |
| 20260903224429 | 13 | 273 | 1.6 | 6.4 | 0.15 | 1.45 | 1.04 | 90 | 1018.4 |
| 20260903223930 | 13 | 264 | 1.6 | 6.4 | 0.18 | 1.45 | 1.04 | 90 | 1018.3 |
| 20260903223429 | 13 | 227 | 1.6 | 4.8 | 0.20 | 1.45 | 1.02 | 89 | 1018.4 |
| 20260903222930 | 13 | 227 | 1.6 | 4.8 | 0.30 | 1.47 | 1.02 | 90 | 1018.2 |
| 20260903222424 | 13 | 178 | 3.2 | 8.0 | 0.33 | 1.47 | 1.02 | 90 | 1018.3 |
| 20260903221923 | 13 | 180 | 3.2 | 8.0 | 0.38 | 1.47 | 1.02 | 90 | 1018.3 |
| 20260903221423 | 13 | 186 | 0.0 | 4.8 | 0.38 | 1.50 | 1.02 | 90 | 1018.2 |
| 20260903220923 | 12 | 129 | 0.0 | 3.2 | 0.41 | 1.50 | 1.02 | 91 | 1018.3 |
| 20260903220428 | 12 | 129 | 0.0 | 1.6 | 0.41 | 1.50 | 1.02 | 90 | 1018.3 |
| 20260903215923 | 12 | 130 | 0.0 | 1.6 | 0.38 | 1.47 | 0.99 | 89 | 1018.3 |
| 20260903215420 | 12 | 130 | 1.6 | 8.0 | 0.38 | 1.47 | 0.99 | 89 | 1018.3 |
| 20260903214920 | 12 | 128 | 1.6 | 11.3 | 0.33 | 1.42 | 0.94 | 89 | 1018.7 |
| 20260903214417 | 12 | 203 | 1.6 | 11.3 | 0.28 | 1.40 | 0.91 | 88 | 1018.7 |
| 20260903213917 | 13 | 175 | 3.2 | 12.9 | 0.23 | 1.35 | 0.86 | 88 | 1018.9 |
| 20260903213417 | 13 | 201 | 3.2 | 12.9 | 0.20 | 1.32 | 0.81 | 88 | 1019.0 |
| 20260903212917 | 13 | 229 | 1.6 | 6.4 | 0.10 | 1.22 | 0.71 | 88 | 1018.8 |
| 20260903212415 | 13 | 217 | 3.2 | 8.0 | 0.05 | 1.17 | 0.69 | 87 | 1018.8 |
| 20260903211913 | 13 | 225 | 4.8 | 14.5 | 0.03 | 1.17 | 0.66 | 86 | 1018.7 |
| 20260903211411 | 14 | 241 | 4.8 | 14.5 | 0.03 | 1.17 | 0.64 | 85 | 1018.7 |
| 20260903210911 | 14 | 263 | 3.2 | 8.0 | 0.00 | 1.14 | 0.61 | 84 | 1018.7 |
| 20260903210411 | 14 | 255 | 3.2 | 11.3 | 0.00 | 1.14 | 0.61 | 84 | 1018.5 |
| 20260903205912 | 14 | 271 | 4.8 | 12.9 | 0.00 | 1.14 | 0.61 | 83 | 1018.5 |
| 20260903205408 | 14 | 289 | 4.8 | 12.9 | 0.00 | 1.17 | 0.61 | 83 | 1018.3 |
| 20260903204907 | 14 | 248 | 3.2 | 12.9 | 0.00 | 1.17 | 0.61 | 82 | 1018.4 |
| 20260903204405 | 15 | 260 | 3.2 | 16.1 | 0.00 | 1.17 | 0.61 | 83 | 1018.3 |
| 20260903203905 | 15 | 207 | 4.8 | 16.1 | 0.00 | 1.17 | 0.61 | 83 | 1018.5 |
| 20260903203405 | 15 | 245 | 6.4 | 16.1 | 0.00 | 1.17 | 0.61 | 83 | 1018.5 |
| 20260903202906 | 15 | 257 | 6.4 | 16.1 | 0.00 | 1.17 | 0.61 | 84 | 1018.7 |
| 20260903202400 | 15 | 166 | 4.8 | 12.9 | 0.00 | 1.17 | 0.61 | 85 | 1018.7 |
| 20260903201859 | 15 | 161 | 4.8 | 14.5 | 0.00 | 1.17 | 0.61 | 86 | 1018.5 |
| 20260903201359 | 15 | 181 | 4.8 | 14.5 | 0.00 | 1.17 | 0.61 | 86 | 1018.5 |
| 20260903200859 | 15 | 148 | 4.8 | 14.5 | 0.00 | 1.17 | 0.61 | 87 | 1018.5 |
| 20260903200359 | 15 | 134 | 4.8 | 17.7 | 0.00 | 1.17 | 0.61 | 87 | 1018.5 |
| 20260903195900 | 15 | 138 | 4.8 | 17.7 | 0.00 | 1.17 | 0.61 | 87 | 1018.4 |
| 20260903195357 | 15 | 151 | 4.8 | 17.7 | 0.00 | 1.17 | 0.61 | 87 | 1018.5 |
| 20260903194857 | 15 | 213 | 6.4 | 20.9 | 0.00 | 1.17 | 0.61 | 87 | 1018.7 |
| 20260903194357 | 15 | 181 | 6.4 | 20.9 | 0.00 | 1.19 | 0.61 | 87 | 1018.8 |
| 20260903193857 | 15 | 123 | 6.4 | 17.7 | 0.00 | 1.19 | 0.61 | 87 | 1018.7 |
| 20260903193358 | 15 | 137 | 6.4 | 17.7 | 0.00 | 1.19 | 0.61 | 87 | 1018.7 |
| 20260903192857 | 15 | 99 | 6.4 | 16.1 | 0.00 | 1.19 | 0.61 | 87 | 1018.5 |
| 20260903192358 | 15 | 141 | 6.4 | 16.1 | 0.00 | 1.22 | 0.61 | 87 | 1018.7 |
| 20260903191852 | 15 | 137 | 6.4 | 16.1 | 0.00 | 1.24 | 0.61 | 86 | 1018.4 |
| 20260903191351 | 15 | 168 | 4.8 | 17.7 | 0.00 | 1.24 | 0.61 | 86 | 1018.7 |
| 20260903190851 | 15 | 157 | 4.8 | 17.7 | 0.00 | 1.24 | 0.61 | 86 | 1018.5 |
| 20260903190351 | 15 | 185 | 6.4 | 20.9 | 0.00 | 1.27 | 0.61 | 86 | 1018.7 |
| 20260903185851 | 16 | 198 | 6.4 | 20.9 | 0.00 | 1.30 | 0.61 | 87 | 1018.5 |
| 20260903185352 | 16 | 172 | 4.8 | 20.9 | 0.00 | 1.30 | 0.61 | 88 | 1018.7 |
| 20260903184845 | 15 | 125 | 3.2 | 11.3 | 0.00 | 1.32 | 0.61 | 89 | 1018.5 |
| 20260903184345 | 15 | 150 | 3.2 | 17.7 | 0.00 | 1.35 | 0.61 | 89 | 1018.7 |
| 20260903183844 | 15 | 114 | 4.8 | 17.7 | 0.00 | 1.37 | 0.61 | 89 | 1018.5 |
| 20260903183346 | 15 | 139 | 4.8 | 16.1 | 0.03 | 1.42 | 0.61 | 89 | 1018.5 |
| 20260903182844 | 15 | 145 | 4.8 | 16.1 | 0.03 | 1.45 | 0.61 | 89 | 1018.7 |
| 20260903182346 | 15 | 141 | 4.8 | 16.1 | 0.03 | 1.50 | 0.61 | 90 | 1018.8 |
| 20260903181840 | 15 | 223 | 3.2 | 14.5 | 0.05 | 1.55 | 0.61 | 89 | 1018.7 |
| 20260903181339 | 15 | 175 | 3.2 | 12.9 | 0.08 | 1.60 | 0.61 | 90 | 1018.7 |
| 20260903180840 | 15 | 169 | 4.8 | 16.1 | 0.10 | 1.63 | 0.61 | 89 | 1018.7 |
| 20260903180339 | 15 | 154 | 4.8 | 16.1 | 0.13 | 1.68 | 0.61 | 89 | 1018.7 |
| 20260903175839 | 14 | 134 | 6.4 | 19.3 | 0.13 | 1.70 | 0.61 | 89 | 1018.5 |
| 20260903175339 | 14 | 130 | 6.4 | 19.3 | 0.15 | 1.70 | 0.61 | 89 | 1018.5 |
| 20260903174840 | 14 | 142 | 4.8 | 19.3 | 0.18 | 1.70 | 0.61 | 90 | 1018.5 |
| 20260903174333 | 14 | 186 | 4.8 | 17.7 | 0.18 | 1.70 | 0.61 | 91 | 1018.7 |
| 20260903173832 | 14 | 132 | 4.8 | 17.7 | 0.18 | 1.70 | 0.61 | 90 | 1018.5 |
| 20260903173332 | 13 | 154 | 4.8 | 17.7 | 0.15 | 1.68 | 0.58 | 90 | 1018.5 |
| 20260903172833 | 13 | 130 | 4.8 | 17.7 | 0.15 | 1.70 | 0.58 | 89 | 1018.5 |
| 20260903172332 | 13 | 149 | 4.8 | 17.7 | 0.15 | 1.70 | 0.58 | 89 | 1018.5 |
| 20260903171832 | 13 | 143 | 3.2 | 11.3 | 0.13 | 1.70 | 0.58 | 89 | 1018.5 |
| 20260903171334 | 14 | 167 | 3.2 | 17.7 | 0.10 | 1.70 | 0.53 | 88 | 1018.7 |
| 20260903170828 | 14 | 186 | 3.2 | 17.7 | 0.08 | 1.70 | 0.51 | 88 | 1018.9 |
| 20260903170323 | 14 | 189 | 3.2 | 12.9 | 0.05 | 1.70 | 0.48 | 88 | 1018.8 |
| 20260903165821 | 14 | 173 | 4.8 | 12.9 | 0.05 | 1.73 | 0.48 | 88 | 1018.7 |
| 20260903165320 | 14 | 175 | 4.8 | 14.5 | 0.03 | 1.70 | 0.46 | 87 | 1018.7 |
| 20260903164820 | 15 | 132 | 4.8 | 16.1 | 0.00 | 1.70 | 0.43 | 87 | 1018.5 |
| 20260903164321 | 15 | 131 | 4.8 | 22.5 | 0.00 | 1.70 | 0.43 | 87 | 1018.5 |
| 20260903163820 | 15 | 167 | 4.8 | 22.5 | 0.00 | 1.70 | 0.43 | 87 | 1018.5 |
| 20260903163323 | 15 | 131 | 4.8 | 16.1 | 0.00 | 1.73 | 0.43 | 87 | 1018.5 |
| 20260903162816 | 15 | 165 | 3.2 | 16.1 | 0.00 | 1.73 | 0.43 | 88 | 1018.7 |
| 20260903162317 | 15 | 159 | 3.2 | 12.9 | 0.00 | 1.73 | 0.43 | 89 | 1018.7 |
| 20260903161818 | 14 | 159 | 4.8 | 17.7 | 0.00 | 1.73 | 0.43 | 89 | 1018.8 |
| 20260903161316 | 14 | 112 | 4.8 | 17.7 | 0.00 | 1.73 | 0.43 | 90 | 1018.5 |
| 20260903160817 | 13 | 114 | 3.2 | 12.9 | 0.00 | 1.73 | 0.43 | 91 | 1018.7 |
| 20260903160317 | 13 | 119 | 3.2 | 11.3 | 0.00 | 1.73 | 0.43 | 91 | 1018.4 |
| 20260903155812 | 13 | 133 | 3.2 | 11.3 | 0.00 | 1.73 | 0.43 | 90 | 1018.4 |
| 20260903155312 | 13 | 115 | 3.2 | 11.3 | 0.00 | 1.73 | 0.43 | 90 | 1018.5 |
| 20260903154814 | 13 | 173 | 3.2 | 12.9 | 0.00 | 1.73 | 0.43 | 90 | 1018.5 |
| 20260903154312 | 13 | 157 | 3.2 | 12.9 | 0.00 | 1.73 | 0.43 | 91 | 1018.5 |
| 20260903153812 | 12 | 151 | 3.2 | 11.3 | 0.00 | 1.73 | 0.43 | 91 | 1018.5 |
| 20260903153314 | 12 | 175 | 3.2 | 17.7 | 0.00 | 1.73 | 0.43 | 91 | 1018.5 |
| 20260903152809 | 12 | 106 | 3.2 | 17.7 | 0.00 | 1.73 | 0.43 | 91 | 1018.5 |
| 20260903152309 | 12 | 151 | 1.6 | 11.3 | 0.00 | 1.73 | 0.43 | 91 | 1018.4 |
| 20260903151810 | 12 | 128 | 1.6 | 11.3 | 0.00 | 1.73 | 0.43 | 91 | 1018.4 |
| 20260903151308 | 12 | 139 | 1.6 | 16.1 | 0.00 | 1.73 | 0.43 | 91 | 1018.5 |
| 20260903150808 | 12 | 146 | 3.2 | 16.1 | 0.00 | 1.73 | 0.43 | 91 | 1018.5 |
| 20260903150310 | 12 | 137 | 4.8 | 12.9 | 0.00 | 1.73 | 0.43 | 91 | 1018.4 |
| 20260903145806 | 12 | 130 | 3.2 | 11.3 | 0.03 | 1.73 | 0.43 | 91 | 1018.5 |
| 20260903145306 | 12 | 132 | 3.2 | 11.3 | 0.05 | 1.73 | 0.43 | 91 | 1018.4 |
| 20260903144804 | 12 | 157 | 3.2 | 11.3 | 0.08 | 1.73 | 0.43 | 91 | 1018.4 |
| 20260903144304 | 12 | 171 | 3.2 | 11.3 | 0.13 | 1.73 | 0.43 | 91 | 1018.4 |
| 20260903144035 | 12 | 99 | 3.2 | 12.9 | 0.15 | 1.73 | 0.43 | 92 | 1018.3 |
| 20260903143304 | 12 | 146 | 3.2 | 12.9 | 0.15 | 1.73 | 0.43 | 92 | 1018.4 |
| 20260903142803 | 12 | 119 | 3.2 | 12.9 | 0.18 | 1.73 | 0.43 | 92 | 1018.3 |
| 20260903142531 | 12 | 102 | 3.2 | 12.9 | 0.23 | 1.73 | 0.43 | 92 | 1018.2 |
| 20260903141801 | 12 | 134 | 1.6 | 9.7 | 0.33 | 1.73 | 0.43 | 91 | 1018.3 |
| 20260903141302 | 12 | 145 | 3.2 | 9.7 | 0.38 | 1.73 | 0.43 | 91 | 1018.4 |
| 20260903140800 | 12 | 154 | 3.2 | 14.5 | 0.41 | 1.73 | 0.43 | 91 | 1018.3 |
| 20260903140258 | 12 | 172 | 3.2 | 14.5 | 0.41 | 1.73 | 0.43 | 91 | 1018.4 |
| 20260903135759 | 12 | 155 | 4.8 | 16.1 | 0.38 | 1.70 | 0.41 | 91 | 1018.4 |
| 20260903135252 | 12 | 148 | 6.4 | 17.7 | 0.38 | 1.68 | 0.38 | 91 | 1018.3 |
| 20260903134752 | 12 | 111 | 4.8 | 17.7 | 0.36 | 1.65 | 0.36 | 91 | 1018.5 |
| 20260903134252 | 12 | 125 | 3.2 | 14.5 | 0.30 | 1.60 | 0.30 | 91 | 1018.5 |
| 20260903133752 | 12 | 198 | 3.2 | 16.1 | 0.28 | 1.57 | 0.28 | 91 | 1018.5 |
| 20260903133252 | 12 | 152 | 4.8 | 17.7 | 0.28 | 1.57 | 0.28 | 91 | 1018.4 |
| 20260903132752 | 12 | 194 | 6.4 | 17.7 | 0.25 | 1.55 | 0.25 | 90 | 1018.4 |
| 20260903132247 | 12 | 97 | 4.8 | 14.5 | 0.20 | 1.50 | 0.20 | 90 | 1018.4 |
| 20260903131746 | 12 | 149 | 3.2 | 11.3 | 0.10 | 1.40 | 0.10 | 90 | 1018.3 |
| 20260903131246 | 12 | 151 | 3.2 | 12.9 | 0.05 | 1.35 | 0.08 | 90 | 1018.2 |
| 20260903130746 | 12 | 178 | 3.2 | 12.9 | 0.03 | 1.32 | 0.05 | 90 | 1018.3 |
| 20260903130246 | 13 | 159 | 3.2 | 12.9 | 0.03 | 1.32 | 0.03 | 90 | 1018.1 |
| 20260903125747 | 13 | 191 | 4.8 | 12.9 | 0.03 | 1.32 | 0.03 | 90 | 1018.1 |
| 20260903125242 | 13 | 181 | 3.2 | 12.9 | 0.00 | 1.30 | 0.00 | 90 | 1018.0 |
| 20260903124742 | 12 | 217 | 3.2 | 11.3 | 0.00 | 1.30 | 0.00 | 90 | 1017.9 |
| 20260903124243 | 12 | 148 | 4.8 | 14.5 | 0.00 | 1.30 | 0.00 | 90 | 1018.1 |
| 20260903123742 | 12 | 149 | 3.2 | 14.5 | 0.00 | 1.30 | 0.00 | 90 | 1018.1 |
| 20260903123240 | 12 | 146 | 3.2 | 11.3 | 0.00 | 1.30 | 0.00 | 90 | 1018.0 |
| 20260903122740 | 12 | 144 | 4.8 | 12.9 | 0.00 | 1.30 | 0.00 | 90 | 1018.1 |
| 20260903122235 | 12 | 159 | 4.8 | 22.5 | 0.00 | 1.30 | 0.00 | 90 | 1018.1 |
| 20260903121734 | 12 | 148 | 4.8 | 22.5 | 0.00 | 1.30 | 0.00 | 90 | 1018.2 |
| 20260903121234 | 12 | 155 | 6.4 | 16.1 | 0.00 | 1.30 | 0.00 | 90 | 1018.2 |
| 20260903120734 | 12 | 128 | 4.8 | 14.5 | 0.00 | 1.30 | 0.00 | 90 | 1018.2 |
| 20260903120234 | 12 | 185 | 4.8 | 14.5 | 0.00 | 1.30 | 0.00 | 90 | 1018.2 |
| 20260903115735 | 12 | 155 | 6.4 | 19.3 | 0.00 | 1.30 | 0.00 | 90 | 1018.2 |
| 20260903115229 | 12 | 126 | 6.4 | 19.3 | 0.00 | 1.30 | 0.00 | 90 | 1018.3 |
| 20260903114727 | 12 | 169 | 6.4 | 22.5 | 0.00 | 1.30 | 0.00 | 90 | 1018.3 |
| 20260903114228 | 12 | 136 | 6.4 | 22.5 | 0.00 | 1.30 | 0.00 | 90 | 1018.2 |
| 20260903113728 | 12 | 171 | 4.8 | 16.1 | 0.00 | 1.30 | 0.00 | 90 | 1018.3 |
| 20260903113228 | 12 | 169 | 4.8 | 16.1 | 0.00 | 1.30 | 0.00 | 90 | 1018.3 |
| 20260903112730 | 12 | 140 | 4.8 | 16.1 | 0.00 | 1.30 | 0.00 | 90 | 1018.3 |
| 20260903112223 | 12 | 130 | 4.8 | 12.9 | 0.00 | 1.30 | 0.00 | 89 | 1018.2 |
| 20260903111722 | 12 | 109 | 3.2 | 12.9 | 0.00 | 1.30 | 0.00 | 90 | 1018.2 |
| 20260903111222 | 12 | 115 | 3.2 | 11.3 | 0.00 | 1.30 | 0.00 | 90 | 1018.2 |
| 20260903110722 | 12 | 146 | 3.2 | 12.9 | 0.00 | 1.30 | 0.00 | 89 | 1018.3 |
| 20260903110222 | 12 | 156 | 3.2 | 12.9 | 0.00 | 1.30 | 0.00 | 89 | 1018.4 |
| 20260903105723 | 13 | 153 | 3.2 | 12.9 | 0.00 | 1.30 | 0.00 | 89 | 1018.4 |
| 20260903105218 | 13 | 186 | 3.2 | 14.5 | 0.00 | 1.30 | 0.00 | 89 | 1018.4 |
| 20260903104716 | 13 | 146 | 4.8 | 16.1 | 0.00 | 1.30 | 0.00 | 89 | 1018.5 |
| 20260903104216 | 13 | 173 | 3.2 | 16.1 | 0.00 | 1.30 | 0.00 | 89 | 1018.4 |
| 20260903103722 | 13 | 167 | 3.2 | 9.7 | 0.00 | 1.30 | 0.00 | 89 | 1018.5 |
| 20260903103215 | 13 | 149 | 3.2 | 14.5 | 0.00 | 1.30 | 0.00 | 89 | 1018.7 |
| 20260903102717 | 13 | 148 | 4.8 | 14.5 | 0.00 | 1.30 | 0.00 | 89 | 1018.7 |
| 20260903102214 | 13 | 138 | 4.8 | 14.5 | 0.00 | 1.30 | 0.00 | 89 | 1018.7 |
| 20260903101714 | 13 | 141 | 4.8 | 16.1 | 0.00 | 1.30 | 0.00 | 89 | 1018.5 |
| 20260903101215 | 12 | 167 | 4.8 | 16.1 | 0.00 | 1.30 | 0.00 | 89 | 1018.7 |
| 20260903100712 | 12 | 155 | 4.8 | 16.1 | 0.00 | 1.30 | 0.00 | 90 | 1018.7 |
| 20260903100210 | 12 | 163 | 4.8 | 16.1 | 0.00 | 1.30 | 0.00 | 90 | 1018.8 |
| 20260903095710 | 12 | 118 | 4.8 | 17.7 | 0.00 | 1.30 | 0.00 | 90 | 1018.5 |
| 20260903095206 | 12 | 209 | 4.8 | 17.7 | 0.00 | 1.30 | 0.00 | 90 | 1018.5 |
| 20260903094705 | 12 | 157 | 3.2 | 12.9 | 0.00 | 1.30 | 0.00 | 90 | 1018.5 |
| 20260903094207 | 12 | 148 | 3.2 | 14.5 | 0.00 | 1.30 | 0.00 | 90 | 1018.7 |
| 20260903093706 | 12 | 159 | 4.8 | 14.5 | 0.00 | 1.30 | 0.00 | 90 | 1018.7 |
| 20260903093204 | 13 | 147 | 3.2 | 14.5 | 0.00 | 1.30 | 0.00 | 90 | 1018.8 |
| 20260903092704 | 13 | 98 | 3.2 | 19.3 | 0.00 | 1.30 | 0.00 | 90 | 1018.7 |
| 20260903092201 | 13 | 153 | 4.8 | 19.3 | 0.00 | 1.30 | 0.00 | 90 | 1018.7 |
| 20260903091700 | 13 | 135 | 3.2 | 12.9 | 0.00 | 1.30 | 0.00 | 90 | 1018.7 |
| 20260903091158 | 13 | 163 | 3.2 | 12.9 | 0.00 | 1.30 | 0.00 | 90 | 1018.9 |
| 20260903090657 | 13 | 141 | 3.2 | 11.3 | 0.00 | 1.30 | 0.00 | 90 | 1019.0 |
| 20260903090157 | 13 | 157 | 3.2 | 12.9 | 0.00 | 1.30 | 0.00 | 90 | 1019.0 |
| 20260903085657 | 13 | 175 | 3.2 | 12.9 | 0.00 | 1.30 | 0.00 | 90 | 1019.1 |
| 20260903085153 | 13 | 157 | 3.2 | 11.3 | 0.00 | 1.30 | 0.00 | 90 | 1019.0 |
| 20260903084652 | 12 | 153 | 3.2 | 14.5 | 0.00 | 1.30 | 0.00 | 90 | 1019.1 |
| 20260903084150 | 12 | 155 | 3.2 | 14.5 | 0.00 | 1.30 | 0.00 | 90 | 1019.1 |
| 20260903083649 | 12 | 149 | 4.8 | 17.7 | 0.00 | 1.30 | 0.00 | 90 | 1019.0 |
| 20260903083149 | 12 | 122 | 6.4 | 17.7 | 0.00 | 1.30 | 0.00 | 90 | 1019.0 |
| 20260903082651 | 12 | 123 | 4.8 | 14.5 | 0.00 | 1.30 | 0.00 | 90 | 1019.0 |
| 20260903082146 | 13 | 136 | 3.2 | 14.5 | 0.00 | 1.30 | 0.00 | 90 | 1019.0 |
| 20260903081646 | 12 | 149 | 3.2 | 14.5 | 0.00 | 1.30 | 0.00 | 90 | 1019.1 |
| 20260903081145 | 12 | 155 | 4.8 | 14.5 | 0.00 | 1.30 | 0.00 | 90 | 1019.0 |
| 20260903080645 | 13 | 151 | 4.8 | 12.9 | 0.00 | 1.30 | 0.00 | 90 | 1019.0 |
| 20260903080145 | 12 | 153 | 3.2 | 12.9 | 0.00 | 1.30 | 0.00 | 90 | 1018.9 |
| 20260903075645 | 12 | 178 | 3.2 | 9.7 | 0.00 | 1.30 | 0.00 | 90 | 1018.9 |
| 20260903075146 | 12 | 153 | 3.2 | 9.7 | 0.00 | 1.30 | 0.00 | 90 | 1018.9 |
| 20260903074644 | 12 | 142 | 3.2 | 9.7 | 0.00 | 1.30 | 0.00 | 90 | 1018.9 |
| 20260903074144 | 12 | 144 | 4.8 | 9.7 | 0.00 | 1.30 | 0.00 | 90 | 1019.0 |
| 20260903073644 | 12 | 159 | 4.8 | 14.5 | 0.00 | 1.30 | 0.00 | 90 | 1018.9 |
| 20260903073143 | 12 | 114 | 4.8 | 14.5 | 0.00 | 1.30 | 0.00 | 90 | 1018.9 |
| 20260903072645 | 13 | 157 | 3.2 | 12.9 | 0.00 | 1.30 | 0.00 | 90 | 1018.9 |
| 20260903072144 | 13 | 165 | 3.2 | 11.3 | 0.00 | 1.30 | 0.00 | 90 | 1018.8 |